Location: Banska Bystrica
(0.0000°N, 19.1500°E)
Time: 09:36:14
(UTC+02:00)

Daily predictions for brighter satellites

Satellite Brightness Start Highest point End
(mag) Time Altitude Azimuth Time Altitude Azimuth Time Altitude Azimuth
ARIANE DEB (SYLDA) 4.0 18:41:34 10° WSW 18:46:17 77° S 19:11:20 11° E
Meteor 2-12 Rocket 4.5 18:43:32 10° N 18:49:40 78° E 18:55:47 10° S
YAOGAN 1 3.9 18:55:12 10° ESE 18:58:14 19° ENE 19:01:16 10° NNE
Cosmos 1943 Rocket 3.7 18:59:26 10° SE 19:02:39 16° ESE 19:05:32 11° ENE
Fermi 3.7 19:05:13 10° WSW 19:09:20 78° SSE 19:12:41 15° ENE
Cosmos 468 Rocket 4.2 19:05:11 10° S 19:10:19 51° ESE 19:15:26 10° NNE
FengYun 1-2 T 4.5 19:05:51 10° SSE 19:11:16 47° ENE 19:16:39 10° N
NOAA 12 4.1 19:07:00 10° S 19:12:15 86° WSW 19:17:31 10° NNW
Cosmos 968 Rocket 3.5 19:07:19 10° NNW 19:12:32 88° ENE 19:17:44 10° SSE
Cosmos 1703 3.5 19:10:40 10° NNE 19:14:21 43° E 19:18:03 10° SSE
COSMOS 2406 4.4 19:10:17 10° NNE 19:14:22 20° ENE 19:18:27 10° ESE
Star 48B 4.2 19:12:41 10° WSW 19:14:54 70° NNW 19:17:56 16° ENE
USA 234 3.2 19:08:44 10° NE 19:15:16 83° SE 19:21:49 10° SW
GOES 2 Rocket 4.1 19:14:17 10° W 19:18:13 40° SSW 19:22:26 10° SE
Cosmos 2297 4.1 19:15:00 10° SSW 19:20:34 66° WNW 19:26:11 10° N
Cosmos 1354 Rocket 4.1 19:18:49 10° NNW 19:24:01 80° WSW 19:29:17 10° S
GPS 2-05 Rocket1 2.3 19:24:23 10° SW 19:27:07 57° SE 19:27:50 40° E
Cosmos 2208 Rocket 4.4 19:23:14 10° S 19:28:13 41° ESE 19:32:14 15° NE
Cosmos 841 Rocket 4.3 19:25:25 10° SSE 19:29:51 29° ESE 19:31:32 24° ENE
Atlas Centaur 2 2.4 19:24:22 10° NW 19:30:15 44° NNE 19:32:43 26° E
SAR-Lupe-2 3.9 19:29:43 23° NE 19:31:33 42° ESE 19:34:57 10° S
CSL-04 Rocket 3.7 19:30:06 10° SSE 19:35:35 63° ENE 19:41:03 10° N
Intelsat 5-3 Rocket 2.4 19:33:42 10° SW 19:36:25 54° SSE 19:38:01 32° E
ARIANE 5 R/B 1.8 19:34:45 10° WSW 19:36:31 44° S 19:36:44 41° SSE
Cosmos-2242 3.2 19:32:50 10° SSE 19:37:03 46° E 19:39:47 20° NNE
Meteor 1-11 4.2 19:32:44 10° N 19:38:32 73° E 19:44:19 10° S
Delta 202 3.7 19:36:45 10° WSW 19:42:32 63° SSE 19:44:45 34° E
Cosmos 1242 Rocket 4.2 19:43:19 10° NNW 19:46:38 35° W 19:49:57 10° SSW
NOAA 11 4.4 19:43:07 10° SSE 19:48:20 45° ENE 19:53:29 10° N
Cosmos 1777 Rocket 4.4 19:45:36 10° N 19:56:43 - SSE 19:49:52 39° ENE
Cosmos 1238 4.4 19:46:51 10° S 19:50:55 67° E 19:50:56 67° E
Cosmos 1763 Rocket 3.7 19:46:32 10° SSW 19:51:48 71° WNW 19:57:04 10° N
Cosmos 44 Rocket 3.3 19:49:27 10° SSW 19:54:35 86° WNW 19:57:11 29° NNE
Cosmos 540 Rocket 3.7 19:53:15 10° S 19:57:57 47° ESE 19:57:57 47° ESE
Lacrosse 5 rocket 3.2 19:55:54 10° N 19:57:08 18° N 19:57:08 18° N
Centaur AC-72 4.3 19:55:52 10° SW 20:01:59 42° SSE 20:07:52 28° ESE
Cosmos 1814 Rocket 3.8 20:02:42 10° S 20:07:51 83° ESE 20:08:45 61° NNE
CZ-2C R/B 4.4 20:05:16 12° N 20:09:26 54° WNW 20:14:03 10° SSW
ADEOS Rocket 3.1 20:04:05 10° NNE 20:11:05 85° ESE 20:17:21 10° S
CZ-4 R/B 3.9 20:08:11 10° SSW 20:11:23 23° WSW 20:14:38 10° NW
Cosmos 2369 Rocket 2.1 20:09:04 10° SSW 20:14:47 87° ESE 20:15:42 64° NNE
ARIANE 5 R/B 3.8 20:15:33 10° WSW 20:19:17 34° S 20:19:17 34° S
Cosmos 2123 Rocket 3.9 20:14:18 10° S 20:20:40 90° W 20:23:19 38° N
Skynet4D Del rocket 4.2 20:15:58 10° WSW 20:21:24 50° NNW 20:22:02 48° N
CZ-4C R/B 4.5 20:17:38 10° NW 20:25:10 37° WSW 20:32:35 10° S
Hubble Space Telescope 3.3 20:22:44 10° WSW 20:25:16 16° SSW 20:25:56 15° SSW
Cosmos 1943 Rocket 3.6 20:41:12 10° SW 20:46:05 33° WNW 20:47:10 31° NW
ATLAS 5 CENTAUR R/B 4.1 20:38:56 10° WNW 20:46:09 46° N 20:51:08 39° NE
H-2A R/B 4.3 20:48:52 10° W 20:49:50 14° W 20:49:50 14° W
FALCON 9 R/B 4.2 20:51:29 10° WNW 21:25:54 68° SW 21:27:32 63° S
